Reno, NV

7:46 AM PST on December 13, 2019 (GMT -0800)
Reno-Tahoe International

Weather History for KRNO - August, 2019

Change the Weather History Date:

Thursday, August 8, 2019

  Actual Average Record
Temperature  
Mean Temperature 76 °F 75 °F  
Max Temperature 87 °F 92 °F 103 °F (1972)
Min Temperature 64 °F 57 °F 38 °F (1944)
Degree Days  
Heating Degree Days 0 0  
Month to date heating degree days 0 0  
Since 1 June heating degree days 15 61  
Since 1 July heating degree days 0 5  
Cooling Degree Days 10 10  
Month to date cooling degree days 110 83  
Year to date cooling degree days 701 570  
Since 1 June cooling degree days 687 533  
Growing Degree Days 26 (Base 50)    
Moisture  
Dew Point 45 °F    
Average Humidity 35    
Maximum Humidity 50    
Minimum Humidity 21    
Precipitation  
Precipitation T in 0.01 in 1.03 in (2013)
Month to date precipitation T 0.08  
Year to date precipitation 8.76 4.54  
Snow  
Snow 0.00 in 0.00 in T in (2013)
Month to date snowfall 0.0 0.0  
Since 1 June snowfall 0.0 T  
Since 1 July snowfall 0.0 0.0  
Snow Depth 0.00 in    
Sea Level Pressure  
Sea Level Pressure 29.88 in    
Wind  
Wind Speed 5 mph ()    
Max Wind Speed 24 mph    
Max Gust Speed 32 mph    
Visibility 10.0 miles    
Events Thunderstorm    
T = Trace of Precipitation, MM = Missing Value Source: Averaged Metar Reports

Daily Weather History Graph

Daily Weather History Graph

Search for Another Location

Airport or City:

Astronomy

Aug. 08, 2019 Rise Set
Actual Time 6:04 AM PDT 8:03 PM PDT
Civil Twilight 5:35 AM PDT 8:33 PM PDT
Nautical Twilight 4:59 AM PDT 9:08 PM PDT
Astronomical Twilight 4:20 AM PDT 9:47 PM PDT
Moon 2:45 PM PDT (8/8) 12:29 AM PDT (8/8)
Length of Visible Light 14h 57m
Length of Day
13h 58m
First Quarter, 61% of the Moon is Illuminated
Aug 8
First Quarter
Aug 15
Full
Aug 23
Last Quarter
Aug 30
New
Sep 5
First Quarter

Hourly Weather History & Observations

Time (PDT) Temp. Dew Point Humidity Pressure Visibility Wind Dir Wind Speed Gust Speed Precip Events Conditions
12:55 AM 72.0 °F 46.9 °F 41% 29.90 in 10.0 mi West 3.5 mph - N/A   Scattered Clouds
1:55 AM 70.0 °F 46.0 °F 42% 29.88 in 10.0 mi West 4.6 mph - N/A   Partly Cloudy
2:55 AM 68.0 °F 46.0 °F 45% 29.88 in 10.0 mi West 4.6 mph - N/A   Partly Cloudy
3:55 AM 66.9 °F 46.0 °F 47% 29.89 in 10.0 mi WNW 4.6 mph - N/A   Clear
4:55 AM 64.9 °F 45.0 °F 48% 29.89 in 10.0 mi WNW 6.9 mph - N/A   Clear
5:55 AM 64.0 °F 45.0 °F 50% 29.92 in 10.0 mi West 4.6 mph - N/A   Partly Cloudy
6:55 AM 64.9 °F 45.0 °F 48% 29.92 in 10.0 mi Variable 3.5 mph - N/A   Partly Cloudy
7:55 AM 69.1 °F 46.0 °F 44% 29.92 in 10.0 mi Calm Calm - N/A   Partly Cloudy
8:55 AM 73.0 °F 48.0 °F 41% 29.91 in 10.0 mi Variable 3.5 mph - N/A   Scattered Clouds
9:55 AM 78.1 °F 48.0 °F 35% 29.89 in 10.0 mi NW 3.5 mph - N/A   Partly Cloudy
10:55 AM 82.9 °F 46.9 °F 28% 29.87 in 10.0 mi Variable 3.5 mph - N/A   Scattered Clouds
11:55 AM 87.1 °F 43.0 °F 21% 29.85 in 10.0 mi Variable 3.5 mph - N/A   Mostly Cloudy
12:55 PM 87.1 °F 42.1 °F 21% 29.82 in 10.0 mi WNW 10.4 mph 20.7 mph N/A   Mostly Cloudy
1:55 PM 84.0 °F 42.1 °F 23% 29.82 in 10.0 mi NW 10.4 mph 21.9 mph 0.00 in   Mostly Cloudy
2:38 PM 84.0 °F 42.1 °F 23% 29.99 in 10.0 mi ENE 5.8 mph - 0.00 in Thunderstorm Mostly Cloudy
2:53 PM 80.6 °F 48.2 °F 32% 29.99 in 10.0 mi NE 11.5 mph - 0.00 in   Mostly Cloudy
2:55 PM 80.1 °F 48.9 °F 34% 29.83 in 10.0 mi NE 10.4 mph - 0.00 in   Mostly Cloudy
3:55 PM 82.0 °F 46.0 °F 28% 29.82 in 10.0 mi ENE 11.5 mph - N/A   Mostly Cloudy
4:55 PM 82.0 °F 46.0 °F 28% 29.83 in 10.0 mi NNE 9.2 mph - N/A   Mostly Cloudy
5:55 PM 84.9 °F 42.1 °F 22% 29.83 in 10.0 mi East 5.8 mph - N/A   Scattered Clouds
6:55 PM 79.0 °F 43.0 °F 28% 29.86 in 10.0 mi East 17.3 mph 25.3 mph N/A   Scattered Clouds
7:55 PM 75.9 °F 42.1 °F 30% 29.87 in 10.0 mi ESE 12.7 mph 21.9 mph N/A   Scattered Clouds
8:55 PM 73.9 °F 42.1 °F 32% 29.89 in 10.0 mi SSE 9.2 mph - N/A   Partly Cloudy
9:55 PM 71.1 °F 45.0 °F 39% 29.90 in 10.0 mi East 8.1 mph - N/A   Clear
10:55 PM 70.0 °F 43.0 °F 38% 29.88 in 10.0 mi South 3.5 mph - N/A   Clear
11:55 PM 68.0 °F 43.0 °F 40% 29.87 in 10.0 mi Calm Calm - N/A   Partly Cloudy